"Period start","avg(HW err(1)/warn(2) (#))","avg(Visibility (m))","avg(Weather code (#))","avg(Precip intensity (mm/h))","min(HW err(1)/warn(2) (#))","max(HW err(1)/warn(2) (#))","std(HW err(1)/warn(2) (#))","med(HW err(1)/warn(2) (#))","min(Visibility (m))","max(Visibility (m))","std(Visibility (m))","med(Visibility (m))","min(Weather code (#))","max(Weather code (#))","std(Weather code (#))","med(Weather code (#))","min(Precip intensity (mm/h))","max(Precip intensity (mm/h))","std(Precip intensity (mm/h))","med(Precip intensity (mm/h))"
2016-08-26 00:00:00,2,15799,0,0.00,2,2,0,2,5991,30805,9150,12614,0,0,0,0,0.00,0.00,0.00,0.00
2016-08-26 00:10:00,2,8658,24,0.00,2,2,0,2,4172,24770,6129,5958,0,61,23,10,0.00,0.00,0.00,0.00
2016-08-26 00:20:00,2,5933,10,0.00,2,2,0,2,4505,8792,1203,5860,10,10,0,10,0.00,0.00,0.00,0.00
2016-08-26 00:30:00,2,21374,49,0.06,2,2,0,2,8524,45019,14123,13529,40,51,4,51,0.00,0.15,0.05,0.05
2016-08-26 00:40:00,2,19774,5,0.05,2,2,0,2,4585,41750,14088,13572,0,40,12,0,0.00,0.50,0.15,0.00
2016-08-26 00:50:00,2,34148,34,0.03,2,2,0,2,13995,50000,11771,34410,0,61,29,50,0.00,0.15,0.05,0.00
2016-08-26 01:00:00,2,33117,0,0.00,2,2,0,2,9503,50000,15407,37438,0,0,0,0,0.00,0.00,0.00,0.00
2016-08-26 01:10:00,2,20736,0,0.00,2,2,0,2,6686,50000,14556,14392,0,0,0,0,0.00,0.00,0.00,0.00
2016-08-26 01:20:00,2,29276,0,0.00,2,2,0,2,6168,46085,13395,31503,0,0,0,0,0.00,0.00,0.00,0.00
2016-08-26 01:30:00,2,13465,0,0.00,2,2,0,2,8812,19372,3493,13540,0,0,0,0,0.00,0.00,0.00,0.00
2016-08-26 01:40:00,2,17857,0,0.00,2,2,0,2,5557,32998,9050,15808,0,0,0,0,0.00,0.00,0.00,0.00
2016-08-26 01:50:00,2,20963,0,0.00,2,2,0,2,7857,45940,11266,17505,0,0,0,0,0.00,0.00,0.00,0.00
2016-08-26 02:00:00,2,40923,0,0.00,2,2,0,2,20559,50000,11126,46006,0,0,0,0,0.00,0.00,0.00,0.00
2016-08-26 02:10:00,2,25340,0,0.00,2,2,0,2,6246,50000,15172,25944,0,0,0,0,0.00,0.00,0.00,0.00
2016-08-26 02:20:00,2,10140,4,0.00,2,2,0,2,5960,17714,3562,8676,0,10,5,0,0.00,0.00,0.00,0.00
2016-08-26 02:30:00,2,19339,21,0.03,2,2,0,2,8478,38414,9423,15800,0,51,21,10,0.00,0.25,0.07,0.00
2016-08-26 02:40:00,2,18618,12,0.03,2,2,0,2,12876,22632,3112,19388,0,61,24,0,0.00,0.15,0.06,0.00
2016-08-26 02:50:00,2,27812,52,0.15,2,2,0,2,16171,39979,7448,26460,51,61,3,51,0.00,0.35,0.09,0.10
2016-08-26 03:00:00,2,46619,26,0.04,2,2,0,2,41136,50000,3049,46350,0,51,26,26,0.00,0.10,0.04,0.03
2016-08-26 03:10:00,2,35538,0,0.00,2,2,0,2,29314,45743,5473,33600,0,0,0,0,0.00,0.00,0.00,0.00
2016-08-26 03:20:00,2,40159,0,0.00,2,2,0,2,25307,50000,9856,43965,0,0,0,0,0.00,0.00,0.00,0.00
2016-08-26 03:30:00,2,43118,0,0.00,2,2,0,2,35191,48161,4416,44876,0,0,0,0,0.00,0.00,0.00,0.00
2016-08-26 03:40:00,2,46585,0,0.00,2,2,0,2,35368,50000,4609,48663,0,0,0,0,0.00,0.00,0.00,0.00
2016-08-26 03:50:00,2,47656,0,0.00,2,2,0,2,41350,50000,2914,49120,0,0,0,0,0.00,0.00,0.00,0.00
2016-08-26 04:00:00,2,38301,0,0.00,2,2,0,2,21896,50000,8080,38604,0,0,0,0,0.00,0.00,0.00,0.00
2016-08-26 04:10:00,2,38648,0,0.00,2,2,0,2,20159,50000,11985,44629,0,0,0,0,0.00,0.00,0.00,0.00
2016-08-26 04:20:00,2,30898,0,0.00,2,2,0,2,12794,49518,13060,31488,0,0,0,0,0.00,0.00,0.00,0.00
2016-08-26 04:30:00,2,13111,0,0.00,2,2,0,2,5073,25145,6585,12366,0,0,0,0,0.00,0.00,0.00,0.00
2016-08-26 04:40:00,2,21778,0,0.00,2,2,0,2,6544,42496,12618,19428,0,0,0,0,0.00,0.00,0.00,0.00
2016-08-26 04:50:00,2,31362,0,0.00,2,2,0,2,14784,50000,12712,32484,0,0,0,0,0.00,0.00,0.00,0.00
2016-08-26 05:00:00,2,26502,18,0.06,2,2,0,2,9081,50000,13617,23274,0,61,23,0,0.00,0.30,0.10,0.00
2016-08-26 05:10:00,2,16726,20,0.81,2,2,0,2,7158,40790,10343,11644,0,40,20,20,0.00,5.05,1.50,0.05
2016-08-26 05:20:00,2,25761,31,0.29,2,2,0,2,5911,45479,15130,26234,0,61,25,46,0.00,1.00,0.34,0.12
2016-08-26 05:30:00,2,40779,0,0.00,2,2,0,2,16833,50000,12573,47350,0,0,0,0,0.00,0.00,0.00,0.00
2016-08-26 05:40:00,2,14681,54,0.21,2,2,0,2,9505,23211,3817,13958,51,61,5,51,0.05,0.55,0.16,0.20
2016-08-26 05:50:00,2,40313,10,0.09,2,2,0,2,12254,50000,14034,47654,0,52,21,0,0.00,0.50,0.18,0.00
2016-08-26 06:00:00,2,16312,40,0.47,2,2,0,2,11264,27352,5174,14221,0,61,26,52,0.00,2.55,0.73,0.23
2016-08-26 06:10:00,2,19934,50,0.15,2,2,0,2,11226,30129,6257,17950,0,61,17,51,0.00,0.75,0.22,0.05
2016-08-26 06:20:00,2,14774,53,1.13,2,2,0,2,4186,29954,6846,14570,51,61,4,51,0.00,5.90,1.87,0.33
2016-08-26 06:30:00,2,16345,49,0.51,2,2,0,2,7310,38957,10616,11378,0,61,24,61,0.00,2.00,0.70,0.15
2016-08-26 06:40:00,2,16848,51,0.15,2,2,0,2,10860,21291,2874,17216,51,52,0,51,0.00,0.50,0.14,0.12
2016-08-26 06:50:00,2,9935,59,1.64,2,2,0,2,7751,13732,1598,9514,51,61,4,61,0.15,6.75,2.02,0.68
2016-08-26 07:00:00,2,11362,61,0.52,2,2,0,2,7663,15739,2569,10776,61,61,0,61,0.00,1.15,0.34,0.48
2016-08-26 07:10:00,2,14010,55,0.59,2,2,0,2,9456,20042,2938,14465,51,61,5,51,0.05,2.20,0.61,0.43
2016-08-26 07:20:00,2,11853,55,1.17,2,2,0,2,7876,18771,3399,10608,51,61,5,51,0.15,4.05,1.35,0.65
2016-08-26 07:30:00,2,13556,60,0.55,2,2,0,2,10760,19468,2691,12387,52,61,3,61,0.00,1.25,0.49,0.40
2016-08-26 07:40:00,2,13603,56,0.69,2,2,0,2,8491,25863,4959,12948,52,61,4,52,0.05,2.65,0.74,0.55
2016-08-26 07:50:00,2,32050,44,0.20,2,2,0,2,20545,49824,10646,28551,0,61,22,51,0.00,0.95,0.29,0.05
2016-08-26 08:00:00,2,36878,0,0.00,2,2,0,2,27992,50000,7744,34220,0,0,0,0,0.00,0.00,0.00,0.00
2016-08-26 08:10:00,2,42634,0,0.00,2,2,0,2,32972,50000,6338,45766,0,0,0,0,0.00,0.00,0.00,0.00
2016-08-26 08:20:00,2,41608,8,0.09,2,2,0,2,8537,50000,14750,48582,0,40,16,0,0.00,0.65,0.20,0.00
2016-08-26 08:30:00,2,25798,61,0.09,2,2,0,2,9544,43038,10222,24408,41,71,11,67,0.00,0.20,0.08,0.08
2016-08-26 08:40:00,2,45284,12,0.00,2,2,0,2,37678,50000,3932,45238,0,61,24,0,0.00,0.00,0.00,0.00
2016-08-26 08:50:00,2,7634,55,0.67,2,2,0,2,4612,11291,2146,7522,41,71,12,61,0.20,1.25,0.32,0.68
2016-08-26 09:00:00,2,6017,72,0.85,2,2,0,2,2228,11216,3015,5007,71,74,1,71,0.10,2.50,0.63,0.78
2016-08-26 09:10:00,2,18548,51,0.12,2,2,0,2,8006,35554,9503,16236,0,71,26,61,0.00,0.50,0.17,0.03
2016-08-26 09:20:00,2,28485,20,0.10,2,2,0,2,7037,50000,17946,24917,0,41,20,20,0.00,0.55,0.17,0.00
2016-08-26 09:30:00,2,5422,71,0.85,2,2,0,2,2520,9347,1841,5802,71,71,0,71,0.00,1.75,0.53,0.80
2016-08-26 09:40:00,2,4236,71,1.11,2,2,0,2,2212,6609,1255,4160,71,71,0,71,0.10,2.15,0.58,1.23
2016-08-26 09:50:00,2,21311,38,0.06,2,2,0,2,7163,43580,12486,17160,0,71,28,40,0.00,0.45,0.13,0.00
2016-08-26 10:00:00,2,7808,72,0.45,2,2,0,2,2454,11230,2584,8892,71,77,2,71,0.05,1.40,0.45,0.30
2016-08-26 10:10:00,2,4262,71,1.15,2,2,0,2,1857,7232,1468,4047,71,71,0,71,0.15,2.70,0.68,0.90
2016-08-26 10:20:00,2,10637,71,0.12,2,2,0,2,3512,20148,5271,11152,71,71,0,71,0.00,0.35,0.14,0.05
2016-08-26 10:30:00,2,6553,71,0.59,2,2,0,2,2750,14895,4790,4060,71,71,0,71,0.00,1.40,0.45,0.62
2016-08-26 10:40:00,2,13752,72,0.11,2,2,0,2,4209,30860,9199,8620,71,77,2,71,0.00,0.60,0.18,0.00
2016-08-26 10:50:00,2,6284,73,0.72,2,2,0,2,2055,23094,6232,3844,71,77,3,71,0.00,2.35,0.72,0.55
2016-08-26 11:00:00,2,14696,46,0.84,2,2,0,2,2322,38539,14196,5220,0,71,31,71,0.00,3.20,1.01,0.52
2016-08-26 11:10:00,2,47236,0,0.00,2,2,0,2,29647,50000,6252,50000,0,0,0,0,0.00,0.00,0.00,0.00
2016-08-26 11:20:00,2,50000,0,0.00,2,2,0,2,50000,50000,0,50000,0,0,0,0,0.00,0.00,0.00,0.00
2016-08-26 11:30:00,2,37860,16,0.00,2,2,0,2,14090,50000,13327,43004,0,41,20,0,0.00,0.00,0.00,0.00
2016-08-26 11:40:00,2,50000,0,0.00,2,2,0,2,50000,50000,0,50000,0,0,0,0,0.00,0.00,0.00,0.00
2016-08-26 11:50:00,2,33789,8,0.01,2,2,0,2,8999,50000,17183,41660,0,41,16,0,0.00,0.05,0.02,0.00
2016-08-26 12:00:00,2,16704,41,0.01,2,2,0,2,11033,29243,5632,14530,41,41,0,41,0.00,0.05,0.02,0.00
2016-08-26 12:10:00,2,16056,48,0.10,2,2,0,2,3071,31945,9313,18159,41,71,11,41,0.00,0.55,0.17,0.00
2016-08-26 12:20:00,2,3737,71,0.68,2,2,0,2,2020,5379,1030,3808,71,71,0,71,0.25,1.60,0.37,0.60
2016-08-26 12:30:00,2,4831,71,0.56,2,2,0,2,3523,7034,1278,4240,71,71,0,71,0.05,1.85,0.54,0.50
2016-08-26 12:40:00,2,7740,72,0.45,2,2,0,2,2863,17165,4712,7120,71,77,2,71,0.00,1.25,0.46,0.25
2016-08-26 12:50:00,2,6580,71,0.93,2,2,0,2,1158,18543,5542,4406,71,71,0,71,0.00,3.35,1.06,0.68
2016-08-26 13:00:00,2,14553,19,0.25,2,2,0,2,2767,27934,8650,16246,0,71,25,0,0.00,1.10,0.36,0.00
2016-08-26 13:10:00,2,12774,51,0.19,2,2,0,2,3800,25524,9109,7858,0,74,33,71,0.00,0.55,0.19,0.17
2016-08-26 13:20:00,2,47046,0,0.00,2,2,0,2,39915,50000,3189,47880,0,0,0,0,0.00,0.00,0.00,0.00
2016-08-26 13:30:00,2,28245,28,0.13,2,2,0,2,4821,47710,17063,33155,0,71,35,0,0.00,0.90,0.28,0.00
2016-08-26 13:40:00,2,35196,14,0.02,2,2,0,2,7279,50000,18400,49898,0,71,28,0,0.00,0.15,0.05,0.00
2016-08-26 13:50:00,2,44181,21,0.00,2,2,0,2,16940,50000,10283,50000,0,71,33,0,0.00,0.00,0.00,0.00
2016-08-26 14:00:00,2,49032,0,0.00,2,2,0,2,43051,50000,2048,50000,0,0,0,0,0.00,0.00,0.00,0.00
2016-08-26 14:10:00,2,39426,0,0.00,2,2,0,2,19267,50000,11721,45678,0,0,0,0,0.00,0.00,0.00,0.00
2016-08-26 14:20:00,2,50000,0,0.00,2,2,0,2,50000,50000,0,50000,0,0,0,0,0.00,0.00,0.00,0.00
2016-08-26 14:30:00,2,49952,0,0.00,2,2,0,2,49525,50000,142,50000,0,0,0,0,0.00,0.00,0.00,0.00
2016-08-26 14:40:00,2,48069,0,0.00,2,2,0,2,31967,50000,5374,50000,0,0,0,0,0.00,0.00,0.00,0.00
2016-08-26 14:50:00,2,36206,0,0.00,2,2,0,2,10339,50000,13791,38515,0,0,0,0,0.00,0.00,0.00,0.00
2016-08-26 15:00:00,2,37271,0,0.00,2,2,0,2,14990,50000,13293,43684,0,0,0,0,0.00,0.00,0.00,0.00
2016-08-26 15:10:00,2,15891,20,0.02,2,2,0,2,6287,29373,7805,16414,0,41,20,20,0.00,0.05,0.02,0.00
2016-08-26 15:20:00,2,19135,41,0.02,2,2,0,2,7958,30309,6650,17426,41,41,0,41,0.00,0.05,0.02,0.00
2016-08-26 15:30:00,2,37346,38,0.00,2,2,0,2,23279,50000,10633,38091,0,77,33,41,0.00,0.00,0.00,0.00
2016-08-26 15:40:00,2,17038,44,0.04,2,2,0,2,4493,50000,15080,11116,0,77,36,71,0.00,0.10,0.04,0.03
2016-08-26 15:50:00,2,11579,75,0.05,2,2,0,2,6255,15698,2679,11498,71,77,3,77,0.00,0.15,0.06,0.03
2016-08-26 16:00:00,2,34312,53,0.00,2,2,0,2,19087,50000,11653,34632,0,77,35,74,0.00,0.00,0.00,0.00
2016-08-26 16:10:00,2,44433,0,0.00,2,2,0,2,17662,50000,9325,48383,0,0,0,0,0.00,0.00,0.00,0.00
2016-08-26 16:20:00,2,23558,0,0.00,2,2,0,2,12742,40808,7988,21242,0,0,0,0,0.00,0.00,0.00,0.00
2016-08-26 16:30:00,2,48125,0,0.00,2,2,0,2,41445,50000,3238,50000,0,0,0,0,0.00,0.00,0.00,0.00
2016-08-26 16:40:00,2,50000,0,0.00,2,2,0,2,50000,50000,0,50000,0,0,0,0,0.00,0.00,0.00,0.00
2016-08-26 16:50:00,2,49828,0,0.00,2,2,0,2,48278,50000,517,50000,0,0,0,0,0.00,0.00,0.00,0.00
2016-08-26 17:00:00,2,49296,0,0.00,2,2,0,2,44465,50000,1640,50000,0,0,0,0,0.00,0.00,0.00,0.00
2016-08-26 17:10:00,2,49515,0,0.00,2,2,0,2,47178,50000,853,50000,0,0,0,0,0.00,0.00,0.00,0.00
2016-08-26 17:20:00,2,50000,0,0.00,2,2,0,2,50000,50000,0,50000,0,0,0,0,0.00,0.00,0.00,0.00
2016-08-26 17:30:00,2,49898,0,0.00,2,2,0,2,48985,50000,304,50000,0,0,0,0,0.00,0.00,0.00,0.00
2016-08-26 17:40:00,2,50000,0,0.00,2,2,0,2,50000,50000,0,50000,0,0,0,0,0.00,0.00,0.00,0.00
2016-08-26 17:50:00,2,49920,0,0.00,2,2,0,2,49202,50000,239,50000,0,0,0,0,0.00,0.00,0.00,0.00
2016-08-26 18:00:00,2,50000,0,0.00,2,2,0,2,50000,50000,0,50000,0,0,0,0,0.00,0.00,0.00,0.00
2016-08-26 18:10:00,2,50000,0,0.00,2,2,0,2,50000,50000,0,50000,0,0,0,0,0.00,0.00,0.00,0.00
2016-08-26 18:20:00,2,49889,0,0.00,2,2,0,2,48889,50000,333,50000,0,0,0,0,0.00,0.00,0.00,0.00
2016-08-26 18:30:00,2,49951,0,0.00,2,2,0,2,49509,50000,147,50000,0,0,0,0,0.00,0.00,0.00,0.00
2016-08-26 18:40:00,2,49931,0,0.00,2,2,0,2,49600,50000,140,50000,0,0,0,0,0.00,0.00,0.00,0.00
2016-08-26 18:50:00,2,49999,0,0.00,2,2,0,2,49986,50000,4,50000,0,0,0,0,0.00,0.00,0.00,0.00
2016-08-26 19:00:00,2,50000,0,0.00,2,2,0,2,50000,50000,0,50000,0,0,0,0,0.00,0.00,0.00,0.00
2016-08-26 19:10:00,2,49992,0,0.00,2,2,0,2,49916,50000,25,50000,0,0,0,0,0.00,0.00,0.00,0.00
2016-08-26 19:20:00,2,50000,0,0.00,2,2,0,2,50000,50000,0,50000,0,0,0,0,0.00,0.00,0.00,0.00
2016-08-26 19:30:00,2,49917,0,0.00,2,2,0,2,49333,50000,201,50000,0,0,0,0,0.00,0.00,0.00,0.00
2016-08-26 19:40:00,2,50000,0,0.00,2,2,0,2,50000,50000,0,50000,0,0,0,0,0.00,0.00,0.00,0.00
2016-08-26 19:50:00,2,50000,0,0.00,2,2,0,2,50000,50000,0,50000,0,0,0,0,0.00,0.00,0.00,0.00
2016-08-26 20:00:00,2,50000,0,0.00,2,2,0,2,50000,50000,0,50000,0,0,0,0,0.00,0.00,0.00,0.00
2016-08-26 20:10:00,2,49576,0,0.00,2,2,0,2,47861,50000,848,50000,0,0,0,0,0.00,0.00,0.00,0.00
2016-08-26 20:20:00,2,49791,0,0.00,2,2,0,2,47906,50000,628,50000,0,0,0,0,0.00,0.00,0.00,0.00
2016-08-26 20:30:00,2,50000,0,0.00,2,2,0,2,50000,50000,0,50000,0,0,0,0,0.00,0.00,0.00,0.00
2016-08-26 20:40:00,2,50000,0,0.00,2,2,0,2,50000,50000,0,50000,0,0,0,0,0.00,0.00,0.00,0.00
2016-08-26 20:50:00,2,49916,0,0.00,2,2,0,2,49160,50000,252,50000,0,0,0,0,0.00,0.00,0.00,0.00
2016-08-26 21:00:00,2,49478,0,0.00,2,2,0,2,47922,50000,812,50000,0,0,0,0,0.00,0.00,0.00,0.00
2016-08-26 21:10:00,2,49996,0,0.00,2,2,0,2,49962,50000,11,50000,0,0,0,0,0.00,0.00,0.00,0.00
2016-08-26 21:20:00,2,49207,0,0.00,2,2,0,2,46575,50000,1064,49694,0,0,0,0,0.00,0.00,0.00,0.00
2016-08-26 21:30:00,2,40212,0,0.00,2,2,0,2,15987,50000,13159,47603,0,0,0,0,0.00,0.00,0.00,0.00
2016-08-26 21:40:00,2,45436,0,0.00,2,2,0,2,36325,50000,4204,45624,0,0,0,0,0.00,0.00,0.00,0.00
2016-08-26 21:50:00,2,47870,0,0.00,2,2,0,2,41516,50000,2861,49498,0,0,0,0,0.00,0.00,0.00,0.00
2016-08-26 22:00:00,2,48563,0,0.00,2,2,0,2,41977,50000,2315,49310,0,0,0,0,0.00,0.00,0.00,0.00
2016-08-26 22:10:00,2,48416,0,0.00,2,2,0,2,45569,50000,1766,49356,0,0,0,0,0.00,0.00,0.00,0.00
2016-08-26 22:20:00,2,44060,0,0.00,2,2,0,2,31625,50000,5597,45659,0,0,0,0,0.00,0.00,0.00,0.00
2016-08-26 22:30:00,2,48428,0,0.00,2,2,0,2,45610,50000,1701,49206,0,0,0,0,0.00,0.00,0.00,0.00
2016-08-26 22:40:00,2,38468,12,0.00,2,2,0,2,19187,50000,11035,40342,0,41,19,0,0.00,0.00,0.00,0.00
2016-08-26 22:50:00,2,49658,0,0.00,2,2,0,2,48193,50000,674,50000,0,0,0,0,0.00,0.00,0.00,0.00
2016-08-26 23:00:00,2,46528,0,0.00,2,2,0,2,36762,50000,5138,50000,0,0,0,0,0.00,0.00,0.00,0.00
2016-08-26 23:10:00,2,49202,0,0.00,2,2,0,2,46754,50000,1221,50000,0,0,0,0,0.00,0.00,0.00,0.00
2016-08-26 23:20:00,2,46664,0,0.00,2,2,0,2,32323,50000,5707,50000,0,0,0,0,0.00,0.00,0.00,0.00
2016-08-26 23:30:00,2,50000,0,0.00,2,2,0,2,50000,50000,0,50000,0,0,0,0,0.00,0.00,0.00,0.00
2016-08-26 23:40:00,2,47181,0,0.00,2,2,0,2,36465,50000,4631,50000,0,0,0,0,0.00,0.00,0.00,0.00
2016-08-26 23:50:00,2,49895,0,0.00,2,2,0,2,48949,50000,315,50000,0,0,0,0,0.00,0.00,0.00,0.00
